Location: Αθήνα
(37.9839°N, 23.7283°E)
Time: 10:13:53
(UTC+03:00)

MOZHAYETS 4 - Visible Passes

Search period start: 13 July 2024 00:00
Search period end: 23 July 2024 00:00
Orbit: 653 x 669 km, 98.3° (Epoch: 13 July)

Date Brightness Start Highest point End Pass type
(mag) Time Alt. Az. Time Alt. Az. Time Alt. Az.
13 Jul 8.1 04:41:44 10° SSE 04:46:11 63° ENE 04:50:39 10° N visible
14 Jul 10.6 03:37:40 10° E 03:39:39 13° ENE 03:41:38 10° NE visible
14 Jul 7.7 05:11:33 10° S 05:15:59 60° W 05:20:28 10° NNW visible
15 Jul 9.9 04:05:30 10° ESE 04:09:11 25° ENE 04:12:53 10° NNE visible
15 Jul 8.6 05:42:04 10° SSW 05:45:56 28° W 05:49:50 10° NW visible
16 Jul 8.5 04:34:27 10° SSE 04:38:49 52° ENE 04:43:13 10° N visible
17 Jul 10.8 03:31:28 10° ENE 03:32:22 11° ENE 03:33:16 10° NE visible
17 Jul 7.6 05:04:06 10° S 05:08:35 74° WSW 05:13:08 10° NNW visible
18 Jul 10.1 03:58:27 10° ESE 04:01:50 21° ENE 04:05:14 10° NNE visible
18 Jul 8.4 05:34:23 10° SSW 05:38:29 34° W 05:42:37 10° NNW visible
19 Jul 8.9 04:27:11 10° SE 04:31:26 42° ENE 04:35:43 10° N visible
20 Jul 7.7 04:56:38 10° SSE 05:01:09 90° W 05:05:43 10° NNW visible
21 Jul 10.4 03:51:27 10° ESE 03:54:28 18° ENE 03:57:30 10° NNE visible
21 Jul 8.1 05:26:45 10° S 05:31:00 41° W 05:35:19 10° NNW visible
22 Jul 9.3 04:19:56 10° SE 04:24:02 35° ENE 04:28:09 10° N visible
